Location: Winthrop
(48.4780°N, 120.1850°W)
Time: 18:03:25
(UTC-07:00)

Explorer 7 - Pass Details

Date: 03 February 2023
Orbit: 478 x 657 km, 50.3° (Epoch: 30 March)

Event Time Altitude Azimuth Distance (km) Brightness Sun altitude
Rises 14:34:11 0° 274° (W) 2,756 10.8 18.1°
Reaches altitude 10° 14:36:24 10° 277° (W) 1,890 10.0 17.9°
Maximum altitude 14:40:43 68° 1° (N) 650 7.3 17.4°
Drops below altitude 10° 14:45:19 10° 85° (E) 2,002 9.3 17.0°
Sets 14:47:42 0° 87° (E) 2,934 10.1 16.7°
